This is the latest recevied weather packets stored in our database for station/object KF7MJQ-10. If no packets are shown the sender has not sent any weather packets the latest 10 day(s).
| Time | Temp. | Humidity | Pressure | Rain* | Wind** | Luminosity | Snow |
|---|---|---|---|---|---|---|---|
| 1777600246 | 13.33° C | 1% | 1016.4 hPa | 0 mm | - | - | - |
| 1777599641 | 13.33° C | 1% | 1016.4 hPa | 0 mm | - | - | - |
| 1777598117 | 13.89° C | 1% | 1016.6 hPa | 0 mm | - | - | - |
| 1777597258 | 13.89° C | 1% | 1016.6 hPa | 0 mm | - | - | - |
| 1777596654 | 13.89° C | 1% | 1016.6 hPa | 0 mm | - | - | - |
| 1777596353 | 13.89° C | 1% | 1016.6 hPa | 0 mm | - | - | - |
| 1777595129 | 13.89° C | 1% | 1016.7 hPa | 0 mm | - | - | - |
| 1777593905 | 14.44° C | 1% | 1017 hPa | 0 mm | - | - | - |
| 1777593616 | 15° C | 1% | 1017 hPa | 0 mm | - | - | - |
| 1777593306 | 15° C | 1% | 1016.9 hPa | 0 mm | - | - | - |
| 1777592457 | 15° C | 1% | 1017.2 hPa | 0 mm | - | - | - |
| 1777591536 | 15.56° C | 1% | 1017.4 hPa | 0 mm | - | - | - |
| 1777591235 | 16.11° C | 1% | 1017.4 hPa | 0 mm | - | - | - |
| 1777590031 | 16.67° C | 1% | 1017.8 hPa | 0 mm | - | - | - |
| 1777589711 | 17.22° C | 1% | 1017.8 hPa | 0 mm | - | - | - |
| 1777586738 | 18.33° C | 1% | 1018.3 hPa | 0 mm | - | - | - |
| 1777585515 | 18.33° C | 1% | 1018.4 hPa | 0 mm | - | - | - |
| 1777585221 | 17.78° C | 1% | 1018.5 hPa | 0 mm | - | - | - |
| 1777584917 | 18.33° C | 1% | 1018.4 hPa | 0 mm | - | - | - |
| 1777584352 | 18.33° C | 1% | 1018.4 hPa | 0 mm | - | - | - |
| 1777582224 | 18.33° C | 20% | 1018.6 hPa | 0 mm | - | - | - |
| 1777581923 | 18.89° C | 31% | 1018.6 hPa | 0 mm | - | - | - |
| 1777580157 | 18.33° C | 1% | 1018.8 hPa | 0 mm | - | - | - |
| 1777576811 | 17.78° C | 1% | 1019.2 hPa | 0 mm | - | - | - |
| 1777576509 | 17.78° C | 1% | 1019.2 hPa | 0 mm | - | - | - |
* Rain latest hour (hover to see other rain measurements)
** Current wind speed in m/s (hover to see current wind gust speed)